Time,TemperatureF,DewpointF,PressureIn,WindDirection,WindDirectionDegrees,WindSpeedMPH,WindSpeedGustMPH,Humidity,HourlyPrecipIn,Conditions,Clouds,dailyrainin,SolarRadiationWatts/m^2,SoftwareType,DateUTC
2013-02-10 00:00:00,17.0,14.6,30.32,South,172,0.0,0.0,90,0.00,CLR,,0.00,0.0,WeatherDisplay:10.37,2013-02-10 05:00:00,
2013-02-10 00:01:00,17.0,14.6,30.32,South,172,0.0,0.0,90,0.00,FEW,,0.00,0.0,WeatherDisplay:10.37,2013-02-10 05:01:00,
2013-02-10 00:06:00,16.9,14.5,30.32,South,172,0.0,0.0,90,0.00,FEW,,0.00,0.0,WeatherDisplay:10.37,2013-02-10 05:06:00,
2013-02-10 00:11:00,16.7,14.3,30.32,South,172,0.0,0.0,90,0.00,FEW,,0.00,0.0,WeatherDisplay:10.37,2013-02-10 05:11:00,
2013-02-10 00:16:00,16.7,14.3,30.31,South,172,0.0,0.0,90,0.00,FEW,,0.00,0.0,WeatherDisplay:10.37,2013-02-10 05:16:00,
2013-02-10 00:21:00,17.0,14.8,30.31,South,172,0.0,0.0,91,0.00,FEW,,0.00,0.0,WeatherDisplay:10.37,2013-02-10 05:21:00,
2013-02-10 00:26:00,17.2,15.0,30.31,South,172,0.0,0.0,91,0.00,FEW,,0.00,0.0,WeatherDisplay:10.37,2013-02-10 05:26:00,
2013-02-10 00:31:00,17.8,15.9,30.31,South,172,0.0,0.0,92,0.00,FEW,,0.00,0.0,WeatherDisplay:10.37,2013-02-10 05:31:00,
2013-02-10 00:36:00,19.2,17.5,30.31,South,172,0.0,0.0,93,0.00,FEW,,0.00,0.0,WeatherDisplay:10.37,2013-02-10 05:36:00,
2013-02-10 00:41:00,19.7,17.8,30.31,South,172,0.0,0.0,92,0.00,FEW,,0.00,0.0,WeatherDisplay:10.37,2013-02-10 05:41:00,
2013-02-10 00:46:00,19.7,17.8,30.30,South,172,0.0,0.0,92,0.00,FEW,,0.00,0.0,WeatherDisplay:10.37,2013-02-10 05:46:00,
2013-02-10 00:51:00,19.7,17.8,30.30,South,172,0.0,0.0,92,0.00,FEW,,0.00,0.0,WeatherDisplay:10.37,2013-02-10 05:51:00,
2013-02-10 00:56:00,19.7,17.8,30.30,South,172,0.0,0.0,92,0.00,FEW,,0.00,0.0,WeatherDisplay:10.37,2013-02-10 05:56:00,
2013-02-10 01:01:00,19.5,17.6,30.28,South,172,0.0,0.0,92,0.00,FEW,,0.00,0.0,WeatherDisplay:10.37,2013-02-10 06:01:00,
2013-02-10 01:06:00,19.4,17.5,30.28,South,172,0.0,0.0,92,0.00,FEW,,0.00,0.0,WeatherDisplay:10.37,2013-02-10 06:06:00,
2013-02-10 01:11:00,19.2,17.3,30.28,South,172,0.0,0.0,92,0.00,FEW,,0.00,0.0,WeatherDisplay:10.37,2013-02-10 06:11:00,
2013-02-10 01:16:00,19.1,17.2,30.28,South,172,0.0,0.0,92,0.00,FEW,,0.00,0.0,WeatherDisplay:10.37,2013-02-10 06:16:00,
2013-02-10 01:21:00,18.9,16.7,30.28,South,172,0.0,0.0,91,0.00,FEW,,0.00,0.0,WeatherDisplay:10.37,2013-02-10 06:21:00,
2013-02-10 01:26:00,18.6,16.4,30.28,South,172,0.0,0.0,91,0.00,FEW,,0.00,0.0,WeatherDisplay:10.37,2013-02-10 06:26:00,
2013-02-10 01:31:00,18.6,16.7,30.27,South,172,0.0,0.0,92,0.00,FEW,,0.00,0.0,WeatherDisplay:10.37,2013-02-10 06:31:00,
2013-02-10 01:36:00,18.8,16.9,30.27,South,172,0.0,0.0,92,0.00,FEW,,0.00,0.0,WeatherDisplay:10.37,2013-02-10 06:36:00,
2013-02-10 01:41:00,18.9,17.0,30.27,South,172,0.0,0.0,92,0.00,FEW,,0.00,0.0,WeatherDisplay:10.37,2013-02-10 06:41:00,
2013-02-10 01:46:00,19.2,17.3,30.26,South,172,0.0,0.0,92,0.00,FEW,,0.00,0.0,WeatherDisplay:10.37,2013-02-10 06:46:00,
2013-02-10 01:51:00,19.2,17.3,30.26,South,172,0.0,0.0,92,0.00,FEW,,0.00,0.0,WeatherDisplay:10.37,2013-02-10 06:51:00,
2013-02-10 01:56:00,19.2,17.3,30.26,South,172,0.0,0.0,92,0.00,FEW,,0.00,0.0,WeatherDisplay:10.37,2013-02-10 06:56:00,
2013-02-10 02:01:00,19.5,17.8,30.26,South,172,0.0,1.1,93,0.00,FEW,,0.00,0.0,WeatherDisplay:10.37,2013-02-10 07:01:00,
2013-02-10 02:06:00,20.0,18.3,30.26,South,172,0.0,1.1,93,0.00,FEW,,0.00,0.0,WeatherDisplay:10.37,2013-02-10 07:06:00,
2013-02-10 02:11:00,20.2,18.2,30.26,South,172,0.0,0.0,92,0.00,FEW,,0.00,0.0,WeatherDisplay:10.37,2013-02-10 07:11:00,
2013-02-10 02:16:00,20.0,18.1,30.26,South,172,0.0,0.0,92,0.00,FEW,,0.00,0.0,WeatherDisplay:10.37,2013-02-10 07:16:00,
2013-02-10 02:21:00,19.5,17.6,30.26,South,172,0.0,0.0,92,0.00,FEW,,0.00,0.0,WeatherDisplay:10.37,2013-02-10 07:21:00,
2013-02-10 02:26:00,19.5,17.6,30.26,South,172,0.0,0.0,92,0.00,FEW,,0.00,0.0,WeatherDisplay:10.37,2013-02-10 07:26:00,
2013-02-10 02:31:00,19.7,17.8,30.26,South,172,0.0,0.0,92,0.00,FEW,,0.00,0.0,WeatherDisplay:10.37,2013-02-10 07:31:00,
2013-02-10 02:36:00,19.5,17.6,30.26,South,172,0.0,0.0,92,0.00,FEW,,0.00,0.0,WeatherDisplay:10.37,2013-02-10 07:36:00,
2013-02-10 02:41:00,19.2,17.3,30.26,South,172,0.2,1.1,92,0.00,FEW,,0.00,0.0,WeatherDisplay:10.37,2013-02-10 07:41:00,
2013-02-10 02:46:00,19.2,17.3,30.26,South,172,0.0,0.0,92,0.00,FEW,,0.00,0.0,WeatherDisplay:10.37,2013-02-10 07:46:00,
2013-02-10 02:51:00,19.4,17.5,30.26,South,172,0.0,0.0,92,0.00,FEW,,0.00,0.0,WeatherDisplay:10.37,2013-02-10 07:51:00,
2013-02-10 02:56:00,19.2,17.3,30.26,South,172,0.0,0.0,92,0.00,FEW,,0.00,0.0,WeatherDisplay:10.37,2013-02-10 07:56:00,
2013-02-10 03:01:00,19.2,17.3,30.25,South,172,0.0,0.0,92,0.00,FEW,,0.00,0.0,WeatherDisplay:10.37,2013-02-10 08:01:00,
2013-02-10 03:06:00,19.4,17.5,30.25,South,172,0.0,0.0,92,0.00,FEW,,0.00,0.0,WeatherDisplay:10.37,2013-02-10 08:06:00,
2013-02-10 03:11:00,19.5,17.6,30.25,South,172,0.0,0.0,92,0.00,FEW,,0.00,0.0,WeatherDisplay:10.37,2013-02-10 08:11:00,
2013-02-10 03:16:00,19.9,18.2,30.25,South,172,0.0,0.0,93,0.00,FEW,,0.00,0.0,WeatherDisplay:10.37,2013-02-10 08:16:00,
2013-02-10 03:21:00,20.2,18.5,30.25,South,172,0.9,1.1,93,0.00,FEW,,0.00,0.0,WeatherDisplay:10.37,2013-02-10 08:21:00,
2013-02-10 03:26:00,20.2,18.2,30.25,South,172,0.3,1.1,92,0.00,FEW,,0.00,0.0,WeatherDisplay:10.37,2013-02-10 08:26:00,
2013-02-10 03:31:00,20.3,18.3,30.24,South,172,0.5,1.1,92,0.00,FEW,,0.00,0.0,WeatherDisplay:10.37,2013-02-10 08:31:00,
2013-02-10 03:36:00,20.5,18.8,30.24,South,172,0.1,1.1,93,0.00,FEW,,0.00,0.0,WeatherDisplay:10.37,2013-02-10 08:36:00,
2013-02-10 03:41:00,20.5,18.8,30.24,South,172,0.0,0.0,93,0.00,FEW,,0.00,0.0,WeatherDisplay:10.37,2013-02-10 08:41:00,
2013-02-10 03:46:00,20.6,18.9,30.23,South,172,0.3,1.1,93,0.00,FEW,,0.00,0.0,WeatherDisplay:10.37,2013-02-10 08:46:00,
2013-02-10 03:51:00,21.0,19.3,30.23,South,172,0.0,0.0,93,0.00,FEW,,0.00,0.0,WeatherDisplay:10.37,2013-02-10 08:51:00,
2013-02-10 03:56:00,21.1,19.4,30.23,South,172,0.0,0.0,93,0.00,FEW,,0.00,0.0,WeatherDisplay:10.37,2013-02-10 08:56:00,
2013-02-10 04:01:00,21.1,19.4,30.23,South,172,0.0,0.0,93,0.00,FEW,,0.00,0.0,WeatherDisplay:10.37,2013-02-10 09:01:00,
2013-02-10 04:06:00,21.3,19.6,30.23,South,172,0.0,0.0,93,0.00,FEW,,0.00,0.0,WeatherDisplay:10.37,2013-02-10 09:06:00,
2013-02-10 04:11:00,21.3,19.6,30.23,South,172,0.0,0.0,93,0.00,FEW,,0.00,0.0,WeatherDisplay:10.37,2013-02-10 09:11:00,
2013-02-10 04:16:00,21.3,19.3,30.23,South,172,0.0,0.0,92,0.00,FEW,,0.00,0.0,WeatherDisplay:10.37,2013-02-10 09:16:00,
2013-02-10 04:21:00,21.4,19.7,30.23,South,172,0.0,0.0,93,0.00,FEW,,0.00,0.0,WeatherDisplay:10.37,2013-02-10 09:21:00,
2013-02-10 04:26:00,21.4,19.7,30.23,South,172,0.0,0.0,93,0.00,FEW,,0.00,0.0,WeatherDisplay:10.37,2013-02-10 09:26:00,
2013-02-10 04:31:00,21.4,19.4,30.24,South,172,0.0,0.0,92,0.00,FEW,,0.00,0.0,WeatherDisplay:10.37,2013-02-10 09:31:00,
2013-02-10 04:36:00,21.3,19.6,30.24,South,172,0.0,0.0,93,0.00,FEW,,0.00,0.0,WeatherDisplay:10.37,2013-02-10 09:36:00,
2013-02-10 04:41:00,21.4,19.7,30.24,South,172,0.0,0.0,93,0.00,FEW,,0.00,0.0,WeatherDisplay:10.37,2013-02-10 09:41:00,
2013-02-10 04:46:00,21.4,19.7,30.24,South,172,0.0,0.0,93,0.00,FEW,,0.00,0.0,WeatherDisplay:10.37,2013-02-10 09:46:00,
2013-02-10 04:51:00,21.3,19.3,30.24,South,172,0.0,0.0,92,0.00,FEW,,0.00,0.0,WeatherDisplay:10.37,2013-02-10 09:51:00,
2013-02-10 04:56:00,21.1,19.1,30.24,South,172,0.0,0.0,92,0.00,FEW,,0.00,0.0,WeatherDisplay:10.37,2013-02-10 09:56:00,
2013-02-10 05:01:00,21.0,19.0,30.24,South,172,0.0,0.0,92,0.00,FEW,,0.00,0.0,WeatherDisplay:10.37,2013-02-10 10:01:00,
2013-02-10 05:06:00,21.0,19.3,30.24,South,172,0.0,0.0,93,0.00,FEW,,0.00,0.0,WeatherDisplay:10.37,2013-02-10 10:06:00,
2013-02-10 05:11:00,21.0,19.3,30.24,South,172,0.0,0.0,93,0.00,FEW,,0.00,0.0,WeatherDisplay:10.37,2013-02-10 10:11:00,
2013-02-10 05:16:00,21.1,19.4,30.24,South,172,0.0,0.0,93,0.00,FEW,,0.00,0.0,WeatherDisplay:10.37,2013-02-10 10:16:00,
2013-02-10 05:21:00,21.3,19.6,30.24,South,172,0.0,0.0,93,0.00,FEW,,0.00,0.0,WeatherDisplay:10.37,2013-02-10 10:21:00,
2013-02-10 05:26:00,21.4,19.7,30.24,South,172,0.0,0.0,93,0.00,FEW,,0.00,0.0,WeatherDisplay:10.37,2013-02-10 10:26:00,
2013-02-10 05:31:00,21.8,20.1,30.24,South,172,0.0,0.0,93,0.00,FEW,,0.00,0.0,WeatherDisplay:10.37,2013-02-10 10:31:00,
2013-02-10 05:36:00,22.1,20.4,30.24,South,172,0.0,0.0,93,0.00,FEW,,0.00,0.0,WeatherDisplay:10.37,2013-02-10 10:36:00,
2013-02-10 05:41:00,22.2,20.5,30.24,South,172,0.0,0.0,93,0.00,FEW,,0.00,0.0,WeatherDisplay:10.37,2013-02-10 10:41:00,
2013-02-10 05:46:00,22.2,20.5,30.24,South,172,0.0,0.0,93,0.00,FEW,,0.00,0.0,WeatherDisplay:10.37,2013-02-10 10:46:00,
2013-02-10 05:51:00,22.2,20.5,30.24,South,172,0.0,0.0,93,0.00,FEW,,0.00,0.0,WeatherDisplay:10.37,2013-02-10 10:51:00,
2013-02-10 05:56:00,22.2,20.5,30.24,South,172,0.0,0.0,93,0.00,FEW,,0.00,0.0,WeatherDisplay:10.37,2013-02-10 10:56:00,
2013-02-10 06:01:00,22.1,20.1,30.24,South,172,0.0,0.0,92,0.00,SCT,,0.00,0.0,WeatherDisplay:10.37,2013-02-10 11:01:00,
2013-02-10 06:06:00,22.1,20.4,30.24,South,172,0.0,0.0,93,0.00,SCT,,0.00,0.0,WeatherDisplay:10.37,2013-02-10 11:06:00,
2013-02-10 06:11:00,22.1,20.1,30.24,South,172,0.0,0.0,92,0.00,SCT,,0.00,0.0,WeatherDisplay:10.37,2013-02-10 11:11:00,
2013-02-10 06:16:00,21.9,19.9,30.24,South,172,0.0,0.0,92,0.00,SCT,,0.00,0.0,WeatherDisplay:10.37,2013-02-10 11:16:00,
2013-02-10 06:21:00,21.8,19.8,30.24,South,172,0.0,0.0,92,0.00,SCT,,0.00,0.0,WeatherDisplay:10.37,2013-02-10 11:21:00,
2013-02-10 06:26:00,21.4,19.4,30.24,South,172,0.0,0.0,92,0.00,SCT,,0.00,0.0,WeatherDisplay:10.37,2013-02-10 11:26:00,
2013-02-10 06:31:00,21.1,19.1,30.24,South,172,0.0,0.0,92,0.00,SCT,,0.00,0.0,WeatherDisplay:10.37,2013-02-10 11:31:00,
2013-02-10 06:36:00,21.0,19.0,30.24,South,172,0.0,0.0,92,0.00,SCT,,0.00,0.0,WeatherDisplay:10.37,2013-02-10 11:36:00,
2013-02-10 06:41:00,20.8,18.8,30.24,South,172,0.0,0.0,92,0.00,SCT,,0.00,0.0,WeatherDisplay:10.37,2013-02-10 11:41:00,
2013-02-10 06:46:00,20.6,18.6,30.24,South,172,0.0,0.0,92,0.00,SCT,,0.00,0.0,WeatherDisplay:10.37,2013-02-10 11:46:00,
2013-02-10 06:51:00,20.5,18.5,30.24,South,172,0.0,0.0,92,0.00,SCT,,0.00,0.0,WeatherDisplay:10.37,2013-02-10 11:51:00,
2013-02-10 06:56:00,20.5,18.5,30.24,South,172,0.0,0.0,92,0.00,SCT,,0.00,0.0,WeatherDisplay:10.37,2013-02-10 11:56:00,
2013-02-10 07:01:00,20.5,18.5,30.23,South,172,0.0,0.0,92,0.00,SCT,,0.00,0.0,WeatherDisplay:10.37,2013-02-10 12:01:00,
2013-02-10 07:06:00,20.5,18.5,30.23,South,172,0.0,0.0,92,0.00,SCT,,0.00,0.0,WeatherDisplay:10.37,2013-02-10 12:06:00,
2013-02-10 07:11:00,20.6,18.9,30.23,South,172,0.0,0.0,93,0.00,SCT,,0.00,0.0,WeatherDisplay:10.37,2013-02-10 12:11:00,
2013-02-10 07:16:00,20.5,18.5,30.24,South,172,0.0,0.0,92,0.00,SCT,,0.00,0.0,WeatherDisplay:10.37,2013-02-10 12:16:00,
2013-02-10 07:21:00,20.5,18.5,30.24,South,172,0.0,0.0,92,0.00,SCT,,0.00,0.0,WeatherDisplay:10.37,2013-02-10 12:21:00,
2013-02-10 07:26:00,20.3,18.3,30.24,South,172,0.0,0.0,92,0.00,SCT,,0.00,0.0,WeatherDisplay:10.37,2013-02-10 12:26:00,
2013-02-10 07:31:00,20.3,18.3,30.23,South,172,0.0,0.0,92,0.00,SCT,,0.00,0.0,WeatherDisplay:10.37,2013-02-10 12:31:00,
2013-02-10 07:36:00,20.5,18.8,30.23,South,172,0.0,0.0,93,0.00,SCT,,0.00,0.0,WeatherDisplay:10.37,2013-02-10 12:36:00,
2013-02-10 07:41:00,21.0,19.3,30.23,South,172,0.0,0.0,93,0.00,SCT,,0.00,0.0,WeatherDisplay:10.37,2013-02-10 12:41:00,
2013-02-10 07:46:00,21.4,19.7,30.21,South,172,0.0,0.0,93,0.00,SCT,,0.00,5.0,WeatherDisplay:10.37,2013-02-10 12:46:00,
2013-02-10 07:51:00,21.8,20.1,30.21,South,172,0.0,0.0,93,0.00,SCT,,0.00,5.0,WeatherDisplay:10.37,2013-02-10 12:51:00,
2013-02-10 07:56:00,22.2,20.7,30.21,South,172,0.0,0.0,94,0.00,SCT,,0.00,7.0,WeatherDisplay:10.37,2013-02-10 12:56:00,
2013-02-10 08:01:00,22.5,20.8,30.21,South,172,0.0,0.0,93,0.00,BKN,,0.00,11.0,WeatherDisplay:10.37,2013-02-10 13:01:00,
2013-02-10 08:06:00,22.7,21.0,30.21,South,172,0.0,0.0,93,0.00,BKN,,0.00,16.0,WeatherDisplay:10.37,2013-02-10 13:06:00,
2013-02-10 08:11:00,22.9,21.2,30.21,South,172,0.2,1.5,93,0.00,BKN,,0.00,19.0,WeatherDisplay:10.37,2013-02-10 13:11:00,
2013-02-10 08:16:00,23.3,21.8,30.19,South,172,0.0,1.1,94,0.00,BKN,,0.00,21.0,WeatherDisplay:10.37,2013-02-10 13:16:00,
2013-02-10 08:21:00,23.9,22.4,30.19,South,172,0.6,1.1,94,0.00,BKN,,0.00,23.0,WeatherDisplay:10.37,2013-02-10 13:21:00,
2013-02-10 08:26:00,24.4,22.9,30.19,South,172,0.2,1.1,94,0.00,BKN,,0.00,25.0,WeatherDisplay:10.37,2013-02-10 13:26:00,
2013-02-10 08:31:00,24.8,23.1,30.17,South,172,1.8,3.5,93,0.00,BKN,,0.00,25.0,WeatherDisplay:10.37,2013-02-10 13:31:00,
2013-02-10 08:36:00,25.1,23.1,30.17,South,171,0.3,1.5,92,0.00,BKN,,0.00,32.0,WeatherDisplay:10.37,2013-02-10 13:36:00,
2013-02-10 08:41:00,25.6,23.6,30.17,SE,126,1.3,3.5,92,0.00,BKN,,0.00,49.0,WeatherDisplay:10.37,2013-02-10 13:41:00,
2013-02-10 08:46:00,25.7,23.4,30.17,SE,126,0.5,3.0,91,0.00,BKN,,0.00,55.0,WeatherDisplay:10.37,2013-02-10 13:46:00,
2013-02-10 08:51:00,25.8,23.3,30.17,SE,126,0.0,1.1,90,0.00,BKN,,0.00,51.0,WeatherDisplay:10.37,2013-02-10 13:51:00,
2013-02-10 08:56:00,26.0,23.5,30.17,SE,126,0.0,1.1,90,0.00,BKN,,0.00,51.0,WeatherDisplay:10.37,2013-02-10 13:56:00,
2013-02-10 09:01:00,26.1,23.3,30.17,SE,126,0.0,0.0,89,0.00,BKN,,0.00,53.0,WeatherDisplay:10.37,2013-02-10 14:01:00,
2013-02-10 09:06:00,26.3,23.5,30.17,SE,126,0.5,1.1,89,0.00,BKN,,0.00,56.0,WeatherDisplay:10.37,2013-02-10 14:06:00,
2013-02-10 09:11:00,26.4,23.3,30.17,SE,126,0.0,0.0,88,0.00,BKN,,0.00,76.0,WeatherDisplay:10.37,2013-02-10 14:11:00,
2013-02-10 09:16:00,26.6,23.5,30.16,SE,126,0.6,1.1,88,0.00,BKN,,0.00,79.0,WeatherDisplay:10.37,2013-02-10 14:16:00,
2013-02-10 09:21:00,26.7,23.4,30.16,SE,126,2.4,3.5,87,0.00,BKN,,0.00,91.0,WeatherDisplay:10.37,2013-02-10 14:21:00,
2013-02-10 09:26:00,27.0,23.4,30.16,SE,126,0.0,1.1,86,0.00,BKN,,0.00,102.0,WeatherDisplay:10.37,2013-02-10 14:26:00,
2013-02-10 09:31:00,27.2,23.6,30.18,SE,126,2.3,3.5,86,0.00,BKN,,0.00,104.0,WeatherDisplay:10.37,2013-02-10 14:31:00,
2013-02-10 09:36:00,27.5,23.9,30.18,SE,124,2.2,3.5,86,0.00,BKN,,0.00,123.0,WeatherDisplay:10.37,2013-02-10 14:36:00,
2013-02-10 09:41:00,27.8,23.9,30.18,SE,124,2.4,4.6,85,0.00,BKN,,0.00,128.0,WeatherDisplay:10.37,2013-02-10 14:41:00,
2013-02-10 09:46:00,27.9,23.7,30.17,SE,124,2.0,3.5,84,0.00,BKN,,0.00,121.0,WeatherDisplay:10.37,2013-02-10 14:46:00,
2013-02-10 09:51:00,28.1,23.6,30.17,SE,124,0.0,0.0,83,0.00,BKN,,0.00,121.0,WeatherDisplay:10.37,2013-02-10 14:51:00,
2013-02-10 09:56:00,28.2,23.7,30.17,SE,124,0.9,1.1,83,0.00,BKN,,0.00,113.0,WeatherDisplay:10.37,2013-02-10 14:56:00,
2013-02-10 10:01:00,28.5,24.0,30.17,SE,124,1.0,1.1,83,0.00,BKN,,0.00,109.0,WeatherDisplay:10.37,2013-02-10 15:01:00,
2013-02-10 10:06:00,28.7,23.9,30.17,ESE,120,5.2,9.2,82,0.00,BKN,,0.00,109.0,WeatherDisplay:10.37,2013-02-10 15:06:00,
2013-02-10 10:11:00,28.8,23.7,30.17,ESE,120,2.4,4.6,81,0.00,BKN,,0.00,120.0,WeatherDisplay:10.37,2013-02-10 15:11:00,
2013-02-10 10:16:00,29.1,24.0,30.16,ESE,120,0.4,1.1,81,0.00,BKN,,0.00,121.0,WeatherDisplay:10.37,2013-02-10 15:16:00,
2013-02-10 10:21:00,29.4,24.0,30.16,ESE,120,0.2,1.1,80,0.00,BKN,,0.00,113.0,WeatherDisplay:10.37,2013-02-10 15:21:00,
2013-02-10 10:26:00,29.5,23.5,30.16,ESE,120,5.2,5.8,78,0.00,BKN,,0.00,111.0,WeatherDisplay:10.37,2013-02-10 15:26:00,
2013-02-10 10:31:00,29.8,23.5,30.16,ESE,120,2.0,3.5,77,0.00,BKN,,0.00,130.0,WeatherDisplay:10.37,2013-02-10 15:31:00,
2013-02-10 10:36:00,30.3,23.6,30.16,ESE,119,4.5,4.6,76,0.00,BKN,,0.00,155.0,WeatherDisplay:10.37,2013-02-10 15:36:00,
2013-02-10 10:41:00,30.6,23.6,30.16,ESE,116,5.3,8.1,75,0.00,BKN,,0.00,181.0,WeatherDisplay:10.37,2013-02-10 15:41:00,
2013-02-10 10:46:00,31.0,23.7,30.15,ESE,114,6.1,8.1,74,0.00,BKN,,0.00,183.0,WeatherDisplay:10.37,2013-02-10 15:46:00,
2013-02-10 10:51:00,31.2,23.5,30.15,ESE,104,8.1,8.1,73,0.00,BKN,,0.00,188.0,WeatherDisplay:10.37,2013-02-10 15:51:00,
2013-02-10 10:56:00,31.5,23.5,30.15,ESE,104,6.7,8.1,72,0.00,BKN,,0.00,204.0,WeatherDisplay:10.37,2013-02-10 15:56:00,
2013-02-10 11:01:00,31.8,23.8,30.16,ESE,104,5.3,6.0,72,0.00,OVC,,0.00,215.0,WeatherDisplay:10.37,2013-02-10 16:01:00,
2013-02-10 11:06:00,32.1,24.1,30.16,ESE,104,8.6,9.2,72,0.00,OVC,,0.00,218.0,WeatherDisplay:10.37,2013-02-10 16:06:00,
2013-02-10 11:12:00,32.2,23.8,30.16,ESE,103,6.2,6.2,71,0.00,OVC,,0.00,241.0,WeatherDisplay:10.37,2013-02-10 16:12:00,
2013-02-10 11:17:00,32.4,24.0,30.15,East,100,4.7,10.4,71,0.00,OVC,,0.00,269.0,WeatherDisplay:10.37,2013-02-10 16:17:00,
2013-02-10 11:22:00,32.5,23.8,30.15,ESE,112,10.7,10.7,70,0.00,OVC,,0.00,294.0,WeatherDisplay:10.37,2013-02-10 16:22:00,
2013-02-10 11:27:00,32.8,24.1,30.15,ESE,121,7.3,9.2,70,0.00,OVC,,0.00,306.0,WeatherDisplay:10.37,2013-02-10 16:27:00,
2013-02-10 11:32:00,33.4,24.7,30.15,ESE,106,5.6,7.5,70,0.00,OVC,,0.00,361.0,WeatherDisplay:10.37,2013-02-10 16:32:00,
2013-02-10 11:37:00,33.7,24.3,30.15,East,86,10.7,10.7,68,0.00,OVC,,0.00,424.0,WeatherDisplay:10.37,2013-02-10 16:37:00,
2013-02-10 11:42:00,34.1,24.6,30.15,ENE,73,4.8,4.8,68,0.00,OVC,,0.00,517.0,WeatherDisplay:10.37,2013-02-10 16:42:00,
2013-02-10 11:47:00,34.6,25.1,30.13,ESE,110,5.2,6.0,68,0.00,OVC,,0.00,436.0,WeatherDisplay:10.37,2013-02-10 16:47:00,
2013-02-10 11:52:00,35.0,24.8,30.13,ESE,110,7.7,9.2,66,0.00,OVC,,0.00,338.0,WeatherDisplay:10.37,2013-02-10 16:52:00,
2013-02-10 11:57:00,35.0,24.8,30.13,ESE,107,4.6,4.6,66,0.00,OVC,,0.00,311.0,WeatherDisplay:10.37,2013-02-10 16:57:00,
2013-02-10 12:02:00,35.0,24.8,30.12,East,99,6.9,8.1,66,0.00,OVC,,0.00,285.0,WeatherDisplay:10.37,2013-02-10 17:02:00,
2013-02-10 12:07:00,34.9,25.0,30.12,East,96,5.3,8.1,67,0.00,OVC,,0.00,285.0,WeatherDisplay:10.37,2013-02-10 17:07:00,
2013-02-10 12:12:00,35.0,25.1,30.12,East,96,4.0,8.1,67,0.00,OVC,,0.00,267.0,WeatherDisplay:10.37,2013-02-10 17:12:00,
2013-02-10 12:17:00,35.2,25.0,30.11,ESE,106,4.9,8.1,66,0.00,OVC,,0.00,274.0,WeatherDisplay:10.37,2013-02-10 17:17:00,
2013-02-10 12:22:00,35.2,25.3,30.11,ESE,109,6.4,8.1,67,0.00,OVC,,0.00,294.0,WeatherDisplay:10.37,2013-02-10 17:22:00,
2013-02-10 12:27:00,35.5,25.3,30.11,ESE,107,4.1,4.6,66,0.00,OVC,,0.00,322.0,WeatherDisplay:10.37,2013-02-10 17:27:00,
2013-02-10 12:32:00,35.8,25.2,30.08,ESE,104,7.4,9.2,65,0.00,OVC,,0.00,350.0,WeatherDisplay:10.37,2013-02-10 17:32:00,
2013-02-10 12:37:00,35.9,25.3,30.08,ENE,61,5.2,5.2,65,0.00,OVC,,0.00,370.0,WeatherDisplay:10.37,2013-02-10 17:37:00,
2013-02-10 12:42:00,36.0,25.4,30.08,East,99,3.7,4.6,65,0.00,OVC,,0.00,364.0,WeatherDisplay:10.37,2013-02-10 17:42:00,
2013-02-10 12:47:00,36.2,25.9,30.06,East,100,4.9,4.9,66,0.00,OVC,,0.00,391.0,WeatherDisplay:10.37,2013-02-10 17:47:00,
2013-02-10 12:52:00,36.6,25.9,30.06,SE,143,3.8,4.6,65,0.00,OVC,,0.00,345.0,WeatherDisplay:10.37,2013-02-10 17:52:00,
2013-02-10 12:57:00,36.6,25.6,30.06,ESE,112,3.7,4.6,64,0.00,OVC,,0.00,310.0,WeatherDisplay:10.37,2013-02-10 17:57:00,
2013-02-10 13:02:00,36.6,25.6,30.05,ESE,106,5.6,8.1,64,0.00,BKN,,0.00,329.0,WeatherDisplay:10.37,2013-02-10 18:02:00,
2013-02-10 13:07:00,36.8,25.8,30.05,ESE,107,4.8,4.8,64,0.00,BKN,,0.00,341.0,WeatherDisplay:10.37,2013-02-10 18:07:00,
2013-02-10 13:12:00,36.9,25.9,30.05,ESE,112,5.0,8.1,64,0.00,BKN,,0.00,320.0,WeatherDisplay:10.37,2013-02-10 18:12:00,
2013-02-10 13:17:00,37.0,25.9,30.05,ESE,109,5.6,6.0,64,0.00,BKN,,0.00,306.0,WeatherDisplay:10.37,2013-02-10 18:17:00,
2013-02-10 13:22:00,36.9,25.5,30.05,ESE,103,4.8,5.8,63,0.00,BKN,,0.00,264.0,WeatherDisplay:10.37,2013-02-10 18:22:00,
2013-02-10 13:27:00,36.9,25.5,30.05,ESE,110,8.1,8.1,63,0.00,BKN,,0.00,313.0,WeatherDisplay:10.37,2013-02-10 18:27:00,
2013-02-10 13:32:00,37.2,25.8,30.04,ESE,116,5.3,8.1,63,0.00,BKN,,0.00,343.0,WeatherDisplay:10.37,2013-02-10 18:32:00,
2013-02-10 13:37:00,37.2,26.1,30.04,ESE,109,5.8,8.1,64,0.00,BKN,,0.00,308.0,WeatherDisplay:10.37,2013-02-10 18:37:00,
2013-02-10 13:42:00,37.3,25.8,30.04,ESE,104,4.4,4.6,63,0.00,BKN,,0.00,283.0,WeatherDisplay:10.37,2013-02-10 18:42:00,
2013-02-10 13:47:00,37.5,26.4,30.02,ESE,113,6.2,7.5,64,0.00,BKN,,0.00,253.0,WeatherDisplay:10.37,2013-02-10 18:47:00,
2013-02-10 13:52:00,37.3,25.8,30.02,ESE,107,5.2,9.0,63,0.00,BKN,,0.00,213.0,WeatherDisplay:10.37,2013-02-10 18:52:00,
2013-02-10 13:57:00,37.2,26.1,30.02,ESE,113,6.3,6.3,64,0.00,BKN,,0.00,179.0,WeatherDisplay:10.37,2013-02-10 18:57:00,
2013-02-10 14:02:00,37.0,26.3,30.03,ESE,104,5.0,8.1,65,0.00,OVC,,0.00,153.0,WeatherDisplay:10.37,2013-02-10 19:02:00,
2013-02-10 14:07:00,36.9,26.6,30.03,ESE,102,5.3,5.8,66,0.00,OVC,,0.00,132.0,WeatherDisplay:10.37,2013-02-10 19:07:00,
2013-02-10 14:12:00,36.9,26.6,30.03,ESE,117,5.2,8.1,66,0.00,OVC,,0.00,123.0,WeatherDisplay:10.37,2013-02-10 19:12:00,
2013-02-10 14:17:00,36.8,26.5,30.03,ESE,109,7.5,7.5,66,0.00,OVC,,0.00,125.0,WeatherDisplay:10.37,2013-02-10 19:17:00,
2013-02-10 14:22:00,36.6,26.7,30.03,ESE,109,4.4,8.1,67,0.00,OVC,,0.00,130.0,WeatherDisplay:10.37,2013-02-10 19:22:00,
2013-02-10 14:27:00,36.6,26.3,30.03,ESE,106,3.9,4.6,66,0.00,OVC,,0.00,120.0,WeatherDisplay:10.37,2013-02-10 19:27:00,
2013-02-10 14:32:00,36.5,26.6,30.02,East,100,2.9,3.5,67,0.00,OVC,,0.00,118.0,WeatherDisplay:10.37,2013-02-10 19:32:00,
2013-02-10 14:37:00,36.5,26.6,30.02,East,99,2.8,3.5,67,0.00,OVC,,0.00,100.0,WeatherDisplay:10.37,2013-02-10 19:37:00,
2013-02-10 14:42:00,36.5,26.6,30.02,East,99,2.9,3.5,67,0.00,OVC,,0.00,84.0,WeatherDisplay:10.37,2013-02-10 19:42:00,
2013-02-10 14:47:00,36.6,26.3,30.00,ESE,102,4.9,4.9,66,0.00,OVC,,0.00,77.0,WeatherDisplay:10.37,2013-02-10 19:47:00,
2013-02-10 14:52:00,36.6,26.3,30.00,East,92,2.8,3.5,66,0.00,OVC,,0.00,99.0,WeatherDisplay:10.37,2013-02-10 19:52:00,
2013-02-10 14:57:00,36.6,26.3,30.00,East,90,2.4,3.5,66,0.00,OVC,,0.00,91.0,WeatherDisplay:10.37,2013-02-10 19:57:00,
2013-02-10 15:02:00,36.8,26.5,29.98,East,90,2.8,3.5,66,0.00,OVC,,0.00,83.0,WeatherDisplay:10.37,2013-02-10 20:02:00,
2013-02-10 15:07:00,36.8,26.9,29.98,East,90,3.1,3.5,67,0.00,OVC,,0.00,60.0,WeatherDisplay:10.37,2013-02-10 20:07:00,
2013-02-10 15:13:00,36.8,26.9,29.98,ESE,104,5.8,9.2,67,0.00,OVC,,0.00,58.0,WeatherDisplay:10.37,2013-02-10 20:13:00,
2013-02-10 15:17:00,36.8,26.5,29.96,ESE,107,5.6,7.5,66,0.00,OVC,,0.00,84.0,WeatherDisplay:10.37,2013-02-10 20:17:00,
2013-02-10 15:23:00,36.9,27.0,29.96,ESE,109,3.5,3.5,67,0.00,OVC,,0.00,63.0,WeatherDisplay:10.37,2013-02-10 20:23:00,
2013-02-10 15:28:00,36.9,27.0,29.96,ESE,109,3.8,3.8,67,0.00,OVC,,0.00,69.0,WeatherDisplay:10.37,2013-02-10 20:28:00,
2013-02-10 15:33:00,36.8,27.2,29.96,East,90,4.4,4.5,68,0.00,OVC,,0.00,62.0,WeatherDisplay:10.37,2013-02-10 20:33:00,
2013-02-10 15:38:00,36.6,27.0,29.96,East,93,4.1,4.1,68,0.00,OVC,,0.00,60.0,WeatherDisplay:10.37,2013-02-10 20:38:00,
2013-02-10 15:43:00,36.5,26.9,29.96,East,92,3.6,3.6,68,0.00,OVC,,0.00,72.0,WeatherDisplay:10.37,2013-02-10 20:43:00,
2013-02-10 15:48:00,36.5,26.9,29.96,ESE,104,4.6,8.1,68,0.00,OVC,,0.00,70.0,WeatherDisplay:10.37,2013-02-10 20:48:00,
2013-02-10 15:53:00,36.5,27.3,29.96,ESE,104,4.2,4.6,69,0.00,OVC,,0.00,44.0,WeatherDisplay:10.37,2013-02-10 20:53:00,
2013-02-10 15:58:00,36.3,27.4,29.96,ESE,104,3.4,3.5,70,0.00,OVC,,0.00,60.0,WeatherDisplay:10.37,2013-02-10 20:58:00,
2013-02-10 16:03:00,36.5,27.6,29.96,ESE,104,3.1,3.5,70,0.00,OVC,,0.00,55.0,WeatherDisplay:10.37,2013-02-10 21:03:00,
2013-02-10 16:08:00,36.5,27.6,29.96,East,97,3.4,3.5,70,0.00,OVC,,0.00,44.0,WeatherDisplay:10.37,2013-02-10 21:08:00,
2013-02-10 16:13:00,36.6,27.4,29.96,ESE,107,8.8,9.2,69,0.00,OVC,,0.00,30.0,WeatherDisplay:10.37,2013-02-10 21:13:00,
2013-02-10 16:18:00,36.6,27.7,29.96,ESE,107,4.2,4.6,70,0.00,OVC,,0.00,25.0,WeatherDisplay:10.37,2013-02-10 21:18:00,
2013-02-10 16:23:00,36.5,27.6,29.96,ESE,109,4.1,4.6,70,0.00,OVC,,0.00,21.0,WeatherDisplay:10.37,2013-02-10 21:23:00,
2013-02-10 16:28:00,36.5,27.6,29.96,ESE,103,7.2,8.1,70,0.00,OVC,,0.00,16.0,WeatherDisplay:10.37,2013-02-10 21:28:00,
2013-02-10 16:33:00,36.5,28.0,29.95,ESE,109,7.6,9.2,71,0.00,OVC,,0.00,16.0,WeatherDisplay:10.37,2013-02-10 21:33:00,
2013-02-10 16:38:00,36.5,28.0,29.95,ESE,103,5.5,5.8,71,0.00,OVC,,0.00,16.0,WeatherDisplay:10.37,2013-02-10 21:38:00,
2013-02-10 16:44:00,36.5,28.3,29.95,ESE,102,4.1,4.1,72,0.00,OVC,,0.00,12.0,WeatherDisplay:10.37,2013-02-10 21:44:00,
2013-02-10 16:49:00,36.3,28.1,29.94,ESE,103,3.3,3.5,72,0.00,OVC,,0.00,14.0,WeatherDisplay:10.37,2013-02-10 21:49:00,
2013-02-10 16:54:00,36.3,28.1,29.94,ESE,102,4.2,4.6,72,0.00,OVC,,0.00,16.0,WeatherDisplay:10.37,2013-02-10 21:54:00,
2013-02-10 16:59:00,36.3,28.1,29.94,East,97,4.8,4.8,72,0.00,OVC,,0.00,16.0,WeatherDisplay:10.37,2013-02-10 21:59:00,
2013-02-10 17:04:00,36.2,28.4,29.92,East,96,3.6,3.6,73,0.00,OVC,,0.00,14.0,WeatherDisplay:10.37,2013-02-10 22:04:00,
2013-02-10 17:09:00,36.2,28.4,29.92,East,93,3.1,3.5,73,0.00,OVC,,0.00,16.0,WeatherDisplay:10.37,2013-02-10 22:09:00,
2013-02-10 17:14:00,36.0,28.5,29.92,East,95,2.7,4.6,74,0.00,OVC,,0.00,18.0,WeatherDisplay:10.37,2013-02-10 22:14:00,
2013-02-10 17:19:00,36.0,28.5,29.92,East,95,4.2,4.2,74,0.00,OVC,,0.00,16.0,WeatherDisplay:10.37,2013-02-10 22:19:00,
2013-02-10 17:24:00,36.0,28.5,29.92,East,95,3.8,4.6,74,0.00,OVC,,0.00,14.0,WeatherDisplay:10.37,2013-02-10 22:24:00,
2013-02-10 17:29:00,36.2,28.7,29.92,East,95,3.1,4.6,74,0.00,OVC,,0.00,11.0,WeatherDisplay:10.37,2013-02-10 22:29:00,
2013-02-10 17:34:00,36.2,28.7,29.89,East,95,4.6,4.6,74,0.00,OVC,,0.00,11.0,WeatherDisplay:10.37,2013-02-10 22:34:00,
2013-02-10 17:39:00,36.3,28.8,29.89,ESE,112,4.4,5.8,74,0.00,OVC,,0.00,9.0,WeatherDisplay:10.37,2013-02-10 22:39:00,
2013-02-10 17:44:00,36.3,28.8,29.89,ESE,107,3.1,3.5,74,0.00,OVC,,0.00,7.0,WeatherDisplay:10.37,2013-02-10 22:44:00,
2013-02-10 17:49:00,36.3,28.8,29.90,ESE,107,3.9,3.9,74,0.00,OVC,,0.00,0.0,WeatherDisplay:10.37,2013-02-10 22:49:00,
2013-02-10 17:54:00,36.3,28.8,29.90,ESE,107,3.1,3.5,74,0.00,OVC,,0.00,0.0,WeatherDisplay:10.37,2013-02-10 22:54:00,
2013-02-10 17:59:00,36.3,29.1,29.90,ESE,107,2.7,3.5,75,0.00,OVC,,0.00,0.0,WeatherDisplay:10.37,2013-02-10 22:59:00,
2013-02-10 18:04:00,36.3,29.1,29.88,ESE,107,3.1,3.5,75,0.00,OVC,,0.00,0.0,WeatherDisplay:10.37,2013-02-10 23:04:00,
2013-02-10 18:09:00,36.5,29.0,29.88,ESE,109,4.5,5.8,74,0.00,OVC,,0.00,0.0,WeatherDisplay:10.37,2013-02-10 23:09:00,
2013-02-10 18:14:00,36.6,29.1,29.88,ESE,109,2.6,3.0,74,0.00,OVC,,0.00,0.0,WeatherDisplay:10.37,2013-02-10 23:14:00,
2013-02-10 18:19:00,36.9,29.4,29.89,ESE,107,3.8,4.6,74,0.00,OVC,,0.00,0.0,WeatherDisplay:10.37,2013-02-10 23:19:00,
2013-02-10 18:24:00,37.0,29.1,29.89,ESE,107,1.9,3.0,73,0.00,OVC,,0.00,0.0,WeatherDisplay:10.37,2013-02-10 23:24:00,
2013-02-10 18:29:00,37.2,29.3,29.89,ESE,107,2.8,3.0,73,0.00,OVC,,0.00,0.0,WeatherDisplay:10.37,2013-02-10 23:29:00,
2013-02-10 18:34:00,37.3,29.8,29.89,ESE,107,2.3,3.5,74,0.00,OVC,,0.00,0.0,WeatherDisplay:10.37,2013-02-10 23:34:00,
2013-02-10 18:39:00,37.2,30.0,29.89,ESE,102,2.6,4.6,75,0.00,OVC,,0.00,0.0,WeatherDisplay:10.37,2013-02-10 23:39:00,
2013-02-10 18:44:00,37.3,30.7,29.89,ESE,107,3.5,4.6,77,0.00,OVC,,0.00,0.0,WeatherDisplay:10.37,2013-02-10 23:44:00,
2013-02-10 18:49:00,37.2,31.0,29.89,ESE,107,4.6,4.6,78,0.00,OVC,,0.00,0.0,WeatherDisplay:10.37,2013-02-10 23:49:00,
2013-02-10 18:54:00,37.2,31.0,29.89,ESE,107,5.0,5.0,78,0.00,OVC,,0.00,0.0,WeatherDisplay:10.37,2013-02-10 23:54:00,
2013-02-10 18:59:00,37.2,31.0,29.89,ESE,106,5.7,8.1,78,0.00,OVC,,0.00,0.0,WeatherDisplay:10.37,2013-02-10 23:59:00,
2013-02-10 19:04:00,37.2,31.0,29.87,ESE,112,9.6,9.6,78,0.00,OVC,,0.00,0.0,WeatherDisplay:10.37,2013-02-11 00:04:00,
2013-02-10 19:09:00,37.2,31.0,29.87,ESE,103,4.1,4.6,78,0.00,OVC,,0.00,0.0,WeatherDisplay:10.37,2013-02-11 00:09:00,
2013-02-10 19:14:00,37.0,30.8,29.87,ESE,104,11.0,11.5,78,0.00,OVC,,0.00,0.0,WeatherDisplay:10.37,2013-02-11 00:14:00,
2013-02-10 19:19:00,37.2,30.7,29.86,ESE,109,6.6,9.2,77,0.00,OVC,,0.00,0.0,WeatherDisplay:10.37,2013-02-11 00:19:00,
2013-02-10 19:24:00,37.2,30.3,29.86,ESE,106,6.1,8.1,76,0.00,OVC,,0.00,0.0,WeatherDisplay:10.37,2013-02-11 00:24:00,
2013-02-10 19:29:00,37.3,30.4,29.86,ESE,107,7.5,8.1,76,0.00,OVC,,0.00,0.0,WeatherDisplay:10.37,2013-02-11 00:29:00,
2013-02-10 19:34:00,37.5,30.3,29.86,East,99,7.3,10.4,75,0.00,OVC,,0.00,0.0,WeatherDisplay:10.37,2013-02-11 00:34:00,
2013-02-10 19:39:00,37.5,30.3,29.86,ESE,110,5.3,9.2,75,0.00,OVC,,0.00,0.0,WeatherDisplay:10.37,2013-02-11 00:39:00,
2013-02-10 19:44:00,37.5,30.3,29.86,ESE,119,5.7,8.1,75,0.00,OVC,,0.00,0.0,WeatherDisplay:10.37,2013-02-11 00:44:00,
2013-02-10 19:49:00,37.5,30.3,29.86,ESE,119,8.9,8.9,75,0.00,OVC,,0.00,0.0,WeatherDisplay:10.37,2013-02-11 00:49:00,
2013-02-10 19:54:00,37.5,30.3,29.86,ESE,117,5.4,5.8,75,0.00,OVC,,0.00,0.0,WeatherDisplay:10.37,2013-02-11 00:54:00,
2013-02-10 19:59:00,37.5,30.3,29.86,East,100,6.2,10.4,75,0.00,OVC,,0.00,0.0,WeatherDisplay:10.37,2013-02-11 00:59:00,
2013-02-10 20:04:00,37.6,30.1,29.84,ESE,112,7.3,9.2,74,0.00,-RA,,0.00,0.0,WeatherDisplay:10.37,2013-02-11 01:04:00,
2013-02-10 20:09:00,37.6,30.4,29.84,ESE,113,5.1,6.0,75,0.00,-RA,,0.00,0.0,WeatherDisplay:10.37,2013-02-11 01:09:00,
2013-02-10 20:14:00,37.5,30.3,29.84,ESE,103,9.5,9.5,75,0.00,-RA,,0.00,0.0,WeatherDisplay:10.37,2013-02-11 01:14:00,
2013-02-10 20:19:00,37.6,30.7,29.83,ESE,110,6.6,10.4,76,0.00,-RA,,0.00,0.0,WeatherDisplay:10.37,2013-02-11 01:19:00,
2013-02-10 20:24:00,37.6,31.0,29.83,ESE,117,11.1,12.0,77,0.00,-RA,,0.00,0.0,WeatherDisplay:10.37,2013-02-11 01:24:00,
2013-02-10 20:29:00,37.5,31.9,29.83,ESE,113,5.6,9.2,80,0.00,-RA,,0.00,0.0,WeatherDisplay:10.37,2013-02-11 01:29:00,
2013-02-10 20:34:00,37.3,32.3,29.82,ESE,114,7.4,11.5,82,0.00,-RA,,0.00,0.0,WeatherDisplay:10.37,2013-02-11 01:34:00,
2013-02-10 20:39:00,37.0,32.6,29.82,ESE,123,9.8,13.8,84,0.00,-RA,,0.00,0.0,WeatherDisplay:10.37,2013-02-11 01:39:00,
2013-02-10 20:44:00,36.9,32.8,29.82,ESE,117,8.3,10.4,85,0.00,-RA,,0.00,0.0,WeatherDisplay:10.37,2013-02-11 01:44:00,
2013-02-10 20:49:00,36.9,33.1,29.79,ESE,107,6.7,10.4,86,0.00,-RA,,0.00,0.0,WeatherDisplay:10.37,2013-02-11 01:49:00,
2013-02-10 20:54:00,36.9,33.1,29.79,ESE,103,8.8,10.4,86,0.00,-RA,,0.00,0.0,WeatherDisplay:10.37,2013-02-11 01:54:00,
2013-02-10 20:59:00,36.9,33.1,29.79,ESE,104,6.2,8.1,86,0.00,-RA,,0.00,0.0,WeatherDisplay:10.37,2013-02-11 01:59:00,
2013-02-10 21:04:00,36.9,33.1,29.78,East,96,7.0,9.0,86,0.00,-RA,,0.00,0.0,WeatherDisplay:10.37,2013-02-11 02:04:00,
2013-02-10 21:09:00,36.9,33.1,29.78,ESE,107,11.4,11.4,86,0.00,-RA,,0.00,0.0,WeatherDisplay:10.37,2013-02-11 02:09:00,
2013-02-10 21:14:00,37.0,33.2,29.78,ESE,103,6.6,8.1,86,0.00,-RA,,0.00,0.0,WeatherDisplay:10.37,2013-02-11 02:14:00,
2013-02-10 21:19:00,37.0,33.2,29.77,East,89,6.5,9.2,86,0.00,-RA,,0.00,0.0,WeatherDisplay:10.37,2013-02-11 02:19:00,
2013-02-10 21:24:00,37.2,33.1,29.77,ESE,107,9.5,9.5,85,0.00,-RA,,0.00,0.0,WeatherDisplay:10.37,2013-02-11 02:24:00,
2013-02-10 21:29:00,37.2,33.1,29.77,ESE,106,6.0,9.2,85,0.00,-RA,,0.00,0.0,WeatherDisplay:10.37,2013-02-11 02:29:00,
2013-02-10 21:34:00,37.2,33.1,29.77,East,99,6.2,8.1,85,0.00,-RA,,0.00,0.0,WeatherDisplay:10.37,2013-02-11 02:34:00,
2013-02-10 21:39:00,37.3,33.2,29.77,ESE,106,7.1,9.2,85,0.00,-RA,,0.00,0.0,WeatherDisplay:10.37,2013-02-11 02:39:00,
2013-02-10 21:44:00,37.5,33.1,29.77,ESE,102,8.7,11.5,84,0.00,-RA,,0.00,0.0,WeatherDisplay:10.37,2013-02-11 02:44:00,
2013-02-10 21:49:00,37.6,32.9,29.76,SE,124,5.7,9.0,83,0.00,-RA,,0.00,0.0,WeatherDisplay:10.37,2013-02-11 02:49:00,
2013-02-10 21:54:00,37.8,32.8,29.76,SE,143,2.1,4.6,82,0.00,-RA,,0.00,0.0,WeatherDisplay:10.37,2013-02-11 02:54:00,
2013-02-10 21:59:00,37.8,33.1,29.76,ESE,120,6.5,8.1,83,0.00,-RA,,0.00,0.0,WeatherDisplay:10.37,2013-02-11 02:59:00,
2013-02-10 22:04:00,37.6,33.5,29.75,ESE,117,2.8,4.6,85,0.00,-RA,,0.00,0.0,WeatherDisplay:10.37,2013-02-11 03:04:00,
2013-02-10 22:09:00,37.6,33.8,29.75,ESE,112,4.9,4.9,86,0.00,-RA,,0.00,0.0,WeatherDisplay:10.37,2013-02-11 03:09:00,
2013-02-10 22:14:00,37.6,33.8,29.75,South,179,3.9,4.6,86,0.00,-RA,,0.00,0.0,WeatherDisplay:10.37,2013-02-11 03:14:00,
2013-02-10 22:19:00,37.6,33.8,29.75,SSE,158,7.8,10.4,86,0.00,-RA,,0.00,0.0,WeatherDisplay:10.37,2013-02-11 03:19:00,
2013-02-10 22:24:00,37.6,34.1,29.75,ESE,113,4.1,8.1,87,0.00,-RA,,0.00,0.0,WeatherDisplay:10.37,2013-02-11 03:24:00,
2013-02-10 22:29:00,37.5,34.0,29.75,ESE,109,3.2,4.6,87,0.00,-RA,,0.00,0.0,WeatherDisplay:10.37,2013-02-11 03:29:00,
2013-02-10 22:34:00,37.5,34.3,29.74,ESE,104,0.1,3.5,88,0.00,-RA,,0.00,0.0,WeatherDisplay:10.37,2013-02-11 03:34:00,
2013-02-10 22:39:00,37.3,34.1,29.74,ESE,104,2.4,3.5,88,0.00,-RA,,0.00,0.0,WeatherDisplay:10.37,2013-02-11 03:39:00,
2013-02-10 22:44:00,37.3,34.4,29.74,ESE,104,1.5,1.5,89,0.00,-RA,,0.00,0.0,WeatherDisplay:10.37,2013-02-11 03:44:00,
2013-02-10 22:49:00,37.3,34.4,29.73,ESE,104,1.8,5.8,89,0.00,-RA,,0.00,0.0,WeatherDisplay:10.37,2013-02-11 03:49:00,
2013-02-10 22:54:00,37.3,34.4,29.73,ESE,104,1.3,3.5,89,0.00,-RA,,0.00,0.0,WeatherDisplay:10.37,2013-02-11 03:54:00,
2013-02-10 22:59:00,37.3,34.4,29.73,ESE,104,0.6,1.1,89,0.00,-RA,,0.00,0.0,WeatherDisplay:10.37,2013-02-11 03:59:00,
2013-02-10 23:04:00,37.5,34.8,29.72,ESE,103,2.0,4.6,90,0.00,OVC,,0.00,0.0,WeatherDisplay:10.37,2013-02-11 04:04:00,
2013-02-10 23:09:00,37.5,34.6,29.72,ESE,103,1.6,3.5,89,0.00,OVC,,0.00,0.0,WeatherDisplay:10.37,2013-02-11 04:09:00,
2013-02-10 23:14:00,37.5,34.6,29.72,ESE,103,0.6,1.1,89,0.00,OVC,,0.00,0.0,WeatherDisplay:10.37,2013-02-11 04:14:00,
2013-02-10 23:19:00,37.5,34.8,29.71,ESE,103,0.5,1.5,90,0.00,OVC,,0.00,0.0,WeatherDisplay:10.37,2013-02-11 04:19:00,
2013-02-10 23:24:00,37.5,34.8,29.71,ESE,103,0.0,1.1,90,0.00,OVC,,0.00,0.0,WeatherDisplay:10.37,2013-02-11 04:24:00,
2013-02-10 23:29:00,37.5,34.8,29.71,ESE,103,0.0,0.0,90,0.00,OVC,,0.00,0.0,WeatherDisplay:10.37,2013-02-11 04:29:00,
2013-02-10 23:34:00,37.5,34.8,29.71,ESE,103,0.0,1.5,90,0.00,OVC,,0.00,0.0,WeatherDisplay:10.37,2013-02-11 04:34:00,
2013-02-10 23:39:00,37.5,34.8,29.71,ESE,103,0.6,3.5,90,0.00,OVC,,0.00,0.0,WeatherDisplay:10.37,2013-02-11 04:39:00,
2013-02-10 23:44:00,37.5,34.8,29.71,ESE,103,0.5,0.0,90,0.00,OVC,,0.00,0.0,WeatherDisplay:10.37,2013-02-11 04:44:00,
2013-02-10 23:49:00,37.5,35.1,29.70,ESE,103,0.1,1.1,91,0.00,OVC,,0.00,0.0,WeatherDisplay:10.37,2013-02-11 04:49:00,
2013-02-10 23:54:00,37.6,35.2,29.70,ESE,103,0.0,0.0,91,0.00,OVC,,0.00,0.0,WeatherDisplay:10.37,2013-02-11 04:54:00,
2013-02-10 23:59:00,37.8,35.7,29.70,ESE,103,0.2,3.5,92,0.00,OVC,,0.00,0.0,WeatherDisplay:10.37,2013-02-11 04:59:00,